Wetterdaten: Mittwoch, 06.06.2012
Datum Zeit Temperatur Luftfeuchte Regen Wind Richtung Richtung Taupunkt Windchill Windben
06.06.2012 00:04 6,0 C 89 % 0,0 l/m 0,2 km/h (0 Bft) O-SO 112 4,3 C 5,7 C 2,3 km/h (1 Bft)
06.06.2012 00:09 5,9 C 90 % 0,0 l/m 0,5 km/h (0 Bft) N-NO 22 4,4 C 5,7 C 0,0 km/h (0 Bft)
06.06.2012 00:14 6,0 C 89 % 0,0 l/m 0,5 km/h (0 Bft) N-NO 22 4,3 C 5,7 C 0,0 km/h (0 Bft)
06.06.2012 00:19 6,0 C 90 % 0,0 l/m 0,2 km/h (0 Bft) S 180 4,5 C 5,7 C 0,0 km/h (0 Bft)
06.06.2012 00:24 5,8 C 91 % 0,0 l/m 0,0 km/h (0 Bft) O-NO 67 4,4 C 5,6 C 0,0 km/h (0 Bft)
06.06.2012 00:29 5,7 C 91 % 0,0 l/m 0,0 km/h (0 Bft) NO 45 4,3 C 5,4 C 0,0 km/h (0 Bft)
06.06.2012 00:34 5,5 C 91 % 0,0 l/m 0,0 km/h (0 Bft) S-SW 202 4,2 C 5,3 C 0,0 km/h (0 Bft)
06.06.2012 00:39 5,5 C 91 % 0,0 l/m 0,0 km/h (0 Bft) NO 45 4,2 C 5,1 C 0,0 km/h (0 Bft)
06.06.2012 00:44 5,4 C 90 % 0,0 l/m 0,0 km/h (0 Bft) NO 45 3,9 C 5,0 C 0,0 km/h (0 Bft)
06.06.2012 00:49 5,4 C 91 % 0,0 l/m 0,0 km/h (0 Bft) O-NO 67 4,1 C 5,0 C 0,0 km/h (0 Bft)
06.06.2012 00:54 5,3 C 91 % 0,0 l/m 0,0 km/h (0 Bft) S-SO 157 4,0 C 5,0 C 0,0 km/h (0 Bft)
06.06.2012 00:59 5,0 C 91 % 0,0 l/m 0,0 km/h (0 Bft) SO 135 3,7 C 4,8 C 0,0 km/h (0 Bft)
06.06.2012 01:04 5,2 C 91 % 0,0 l/m 0,2 km/h (0 Bft) N 360 3,9 C 4,7 C 1,8 km/h (1 Bft)
06.06.2012 01:09 5,5 C 91 % 0,0 l/m 0,2 km/h (0 Bft) N 360 4,2 C 4,8 C 0,0 km/h (0 Bft)
06.06.2012 01:14 5,3 C 91 % 0,0 l/m 0,2 km/h (0 Bft) W-SW 247 4,0 C 5,0 C 0,0 km/h (0 Bft)
06.06.2012 01:19 5,1 C 91 % 0,0 l/m 0,0 km/h (0 Bft) S-SO 157 3,8 C 4,8 C 0,0 km/h (0 Bft)
06.06.2012 01:24 5,1 C 91 % 0,0 l/m 0,2 km/h (0 Bft) N 360 3,8 C 4,7 C 0,0 km/h (0 Bft)
06.06.2012 01:29 5,1 C 91 % 0,0 l/m 0,2 km/h (0 Bft) O-NO 67 3,8 C 4,7 C 0,0 km/h (0 Bft)
06.06.2012 01:34 5,3 C 92 % 0,0 l/m 0,0 km/h (0 Bft) NO 45 4,1 C 4,8 C 0,0 km/h (0 Bft)
06.06.2012 01:39 5,5 C 92 % 0,0 l/m 0,0 km/h (0 Bft) N-NO 22 4,3 C 4,8 C 0,0 km/h (0 Bft)
06.06.2012 01:44 5,1 C 92 % 0,0 l/m 0,0 km/h (0 Bft) O-SO 112 3,9 C 4,8 C 0,0 km/h (0 Bft)
06.06.2012 01:49 5,1 C 92 % 0,0 l/m 0,0 km/h (0 Bft) NO 45 3,9 C 4,8 C 0,0 km/h (0 Bft)
06.06.2012 01:54 5,0 C 92 % 0,0 l/m 0,0 km/h (0 Bft) NO 45 3,8 C 4,7 C 0,0 km/h (0 Bft)
06.06.2012 01:59 4,9 C 92 % 0,0 l/m 0,0 km/h (0 Bft) N-NW 337 3,7 C 4,6 C 0,0 km/h (0 Bft)
06.06.2012 02:04 5,1 C 92 % 0,0 l/m 0,0 km/h (0 Bft) N 360 3,9 C 4,8 C 0,0 km/h (0 Bft)
06.06.2012 02:08 5,1 C 92 % 0,0 l/m 0,0 km/h (0 Bft) N 360 3,9 C 4,8 C 0,0 km/h (0 Bft)
06.06.2012 02:19 5,4 C 92 % 0,0 l/m 0,2 km/h (0 Bft) N-NO 22 4,2 C 5,1 C 0,0 km/h (0 Bft)
06.06.2012 02:20 5,4 C 92 % 0,0 l/m 0,2 km/h (0 Bft) N-NO 22 4,2 C 5,1 C 0,0 km/h (0 Bft)
06.06.2012 02:25 5,5 C 92 % 0,0 l/m 0,2 km/h (0 Bft) W-SW 247 4,3 C 5,2 C 0,0 km/h (0 Bft)
06.06.2012 02:30 5,5 C 92 % 0,0 l/m 0,0 km/h (0 Bft) O 90 4,3 C 5,3 C 0,0 km/h (0 Bft)
06.06.2012 02:35 5,5 C 92 % 0,0 l/m 0,2 km/h (0 Bft) SO 135 4,3 C 5,3 C 0,0 km/h (0 Bft)
06.06.2012 02:40 5,6 C 92 % 0,0 l/m 0,2 km/h (0 Bft) N 360 4,4 C 5,3 C 0,0 km/h (0 Bft)
06.06.2012 02:45 5,7 C 92 % 0,0 l/m 0,2 km/h (0 Bft) W-NW 292 4,5 C 5,4 C 2,1 km/h (1 Bft)
06.06.2012 02:50 5,9 C 93 % 0,0 l/m 0,2 km/h (0 Bft) N 360 4,9 C 5,6 C 0,0 km/h (0 Bft)
06.06.2012 02:55 6,0 C 91 % 0,0 l/m 0,2 km/h (0 Bft) N-NO 22 4,6 C 5,7 C 0,0 km/h (0 Bft)
06.06.2012 03:00 6,1 C 92 % 0,0 l/m 0,2 km/h (0 Bft) W-SW 247 4,9 C 5,9 C 2,1 km/h (1 Bft)
06.06.2012 03:05 6,3 C 92 % 0,0 l/m 0,3 km/h (0 Bft) NO 45 5,1 C 6,2 C 0,0 km/h (0 Bft)
06.06.2012 03:10 6,8 C 92 % 0,0 l/m 0,6 km/h (0 Bft) N-NO 22 5,6 C 6,4 C 1,8 km/h (1 Bft)
06.06.2012 03:15 7,0 C 92 % 0,0 l/m 0,5 km/h (0 Bft) W 270 5,8 C 6,6 C 2,1 km/h (1 Bft)
06.06.2012 03:20 7,1 C 92 % 0,0 l/m 0,3 km/h (0 Bft) N-NO 22 5,9 C 6,8 C 0,0 km/h (0 Bft)
06.06.2012 03:25 7,2 C 92 % 0,0 l/m 0,2 km/h (0 Bft) SO 135 6,0 C 6,9 C 0,0 km/h (0 Bft)
06.06.2012 03:30 7,2 C 93 % 0,0 l/m 0,0 km/h (0 Bft) N 360 6,1 C 7,0 C 0,0 km/h (0 Bft)
06.06.2012 03:35 7,2 C 93 % 0,0 l/m 0,2 km/h (0 Bft) W-NW 292 6,1 C 7,0 C 2,3 km/h (1 Bft)
06.06.2012 03:40 7,2 C 93 % 0,0 l/m 0,5 km/h (0 Bft) W 270 6,1 C 7,0 C 0,0 km/h (0 Bft)
06.06.2012 03:45 7,2 C 93 % 0,0 l/m 0,6 km/h (0 Bft) N 360 6,1 C 7,0 C 0,0 km/h (0 Bft)
06.06.2012 03:50 7,2 C 93 % 0,0 l/m 0,2 km/h (0 Bft) NO 45 6,1 C 7,0 C 0,0 km/h (0 Bft)
06.06.2012 03:55 7,3 C 93 % 0,0 l/m 0,0 km/h (0 Bft) N-NO 22 6,2 C 7,0 C 0,0 km/h (0 Bft)
06.06.2012 04:00 7,3 C 93 % 0,0 l/m 0,0 km/h (0 Bft) N-NO 22 6,2 C 7,1 C 0,0 km/h (0 Bft)
06.06.2012 04:05 7,4 C 92 % 0,0 l/m 0,0 km/h (0 Bft) NO 45 6,2 C 7,1 C 0,0 km/h (0 Bft)
06.06.2012 04:10 7,4 C 92 % 0,0 l/m 0,0 km/h (0 Bft) N-NO 22 6,2 C 7,2 C 0,0 km/h (0 Bft)
06.06.2012 04:15 7,4 C 92 % 0,0 l/m 0,6 km/h (0 Bft) N 360 6,2 C 7,2 C 1,9 km/h (1 Bft)
06.06.2012 04:20 7,5 C 92 % 0,0 l/m 1,0 km/h (0 Bft) SO 135 6,3 C 7,2 C 2,6 km/h (1 Bft)
06.06.2012 04:25 7,5 C 92 % 0,0 l/m 1,1 km/h (1 Bft) O-SO 112 6,3 C 7,2 C 2,1 km/h (1 Bft)
06.06.2012 04:30 7,6 C 92 % 0,0 l/m 1,1 km/h (1 Bft) O-SO 112 6,4 C 7,2 C 2,1 km/h (1 Bft)
06.06.2012 04:35 7,6 C 92 % 0,0 l/m 1,0 km/h (0 Bft) N 360 6,4 C 7,2 C 1,6 km/h (1 Bft)
06.06.2012 04:40 7,6 C 92 % 0,0 l/m 1,9 km/h (1 Bft) N 360 6,4 C 7,3 C 3,5 km/h (1 Bft)
06.06.2012 04:45 7,6 C 92 % 0,0 l/m 1,6 km/h (1 Bft) O-SO 112 6,4 C 7,3 C 1,6 km/h (1 Bft)
06.06.2012 04:50 7,5 C 92 % 0,0 l/m 0,3 km/h (0 Bft) N-NW 337 6,3 C 7,3 C 0,0 km/h (0 Bft)
06.06.2012 04:55 7,4 C 92 % 0,0 l/m 0,2 km/h (0 Bft) N 360 6,2 C 7,2 C 0,0 km/h (0 Bft)
06.06.2012 05:00 7,4 C 92 % 0,0 l/m 0,2 km/h (0 Bft) N 360 6,2 C 7,1 C 1,8 km/h (1 Bft)
06.06.2012 05:05 7,5 C 92 % 0,0 l/m 0,3 km/h (0 Bft) S 180 6,3 C 7,1 C 0,0 km/h (0 Bft)
06.06.2012 05:10 7,5 C 92 % 0,0 l/m 0,3 km/h (0 Bft) O-SO 112 6,3 C 7,2 C 0,0 km/h (0 Bft)
06.06.2012 05:15 7,4 C 92 % 0,0 l/m 0,2 km/h (0 Bft) W-SW 247 6,2 C 7,2 C 0,0 km/h (0 Bft)
06.06.2012 05:20 7,5 C 92 % 0,0 l/m 0,2 km/h (0 Bft) N-NW 337 6,3 C 7,2 C 0,0 km/h (0 Bft)
06.06.2012 05:25 7,5 C 92 % 0,0 l/m 0,0 km/h (0 Bft) NW 315 6,3 C 7,2 C 0,0 km/h (0 Bft)
06.06.2012 05:30 7,4 C 92 % 0,0 l/m 0,3 km/h (0 Bft) W-SW 247 6,2 C 7,2 C 0,0 km/h (0 Bft)
06.06.2012 05:35 7,2 C 92 % 0,0 l/m 0,3 km/h (0 Bft) O-SO 112 6,0 C 7,2 C 0,0 km/h (0 Bft)
06.06.2012 05:40 7,1 C 92 % 0,0 l/m 0,2 km/h (0 Bft) O 90 5,9 C 7,1 C 0,0 km/h (0 Bft)
06.06.2012 05:45 7,1 C 92 % 0,0 l/m 0,0 km/h (0 Bft) NO 45 5,9 C 7,0 C 0,0 km/h (0 Bft)
06.06.2012 05:50 7,4 C 92 % 0,0 l/m 0,3 km/h (0 Bft) N 360 6,2 C 7,1 C 0,0 km/h (0 Bft)
06.06.2012 05:55 7,4 C 92 % 0,0 l/m 0,3 km/h (0 Bft) N 360 6,2 C 7,1 C 0,0 km/h (0 Bft)
06.06.2012 06:00 7,6 C 92 % 0,0 l/m 0,2 km/h (0 Bft) O 90 6,4 C 7,2 C 0,0 km/h (0 Bft)
06.06.2012 06:05 7,8 C 92 % 0,0 l/m 0,0 km/h (0 Bft) O-SO 112 6,6 C 7,4 C 0,0 km/h (0 Bft)
06.06.2012 06:10 8,0 C 92 % 0,0 l/m 0,0 km/h (0 Bft) S 180 6,8 C 7,7 C 0,0 km/h (0 Bft)
06.06.2012 06:15 8,7 C 92 % 0,0 l/m 0,0 km/h (0 Bft) W-SW 247 7,5 C 8,3 C 1,8 km/h (1 Bft)
06.06.2012 06:20 8,2 C 91 % 0,0 l/m 0,3 km/h (0 Bft) W 270 6,8 C 8,7 C 0,0 km/h (0 Bft)
06.06.2012 06:25 8,1 C 91 % 0,0 l/m 0,3 km/h (0 Bft) N-NO 22 6,7 C 8,4 C 0,0 km/h (0 Bft)
06.06.2012 06:30 8,2 C 91 % 0,0 l/m 0,0 km/h (0 Bft) N 360 6,8 C 8,1 C 0,0 km/h (0 Bft)
06.06.2012 06:35 8,3 C 91 % 0,0 l/m 0,0 km/h (0 Bft) NO 45 6,9 C 8,1 C 0,0 km/h (0 Bft)
06.06.2012 06:40 8,5 C 91 % 0,0 l/m 0,0 km/h (0 Bft) NO 45 7,1 C 8,2 C 0,0 km/h (0 Bft)
06.06.2012 06:45 8,8 C 91 % 0,0 l/m 0,0 km/h (0 Bft) N-NW 337 7,4 C 8,3 C 0,0 km/h (0 Bft)
06.06.2012 06:50 9,3 C 90 % 0,0 l/m 0,0 km/h (0 Bft) S 180 7,7 C 8,7 C 0,0 km/h (0 Bft)
06.06.2012 06:55 9,7 C 90 % 0,0 l/m 0,0 km/h (0 Bft) S-SW 202 8,1 C 9,2 C 0,0 km/h (0 Bft)
06.06.2012 07:00 10,0 C 89 % 0,0 l/m 0,0 km/h (0 Bft) N 360 8,3 C 10,0 C 0,0 km/h (0 Bft)
06.06.2012 07:05 9,8 C 89 % 0,0 l/m 0,0 km/h (0 Bft) S 180 8,1 C 10,1 C 0,0 km/h (0 Bft)
06.06.2012 07:10 9,7 C 89 % 0,0 l/m 0,0 km/h (0 Bft) S 180 8,0 C 9,9 C 0,0 km/h (0 Bft)
06.06.2012 07:15 9,6 C 89 % 0,0 l/m 0,0 km/h (0 Bft) S-SW 202 7,9 C 9,8 C 0,0 km/h (0 Bft)
06.06.2012 07:20 9,4 C 89 % 0,0 l/m 0,0 km/h (0 Bft) W-SW 247 7,7 C 9,6 C 0,0 km/h (0 Bft)
06.06.2012 07:25 9,4 C 89 % 0,0 l/m 0,0 km/h (0 Bft) SO 135 7,7 C 9,5 C 0,0 km/h (0 Bft)
06.06.2012 07:30 9,5 C 89 % 0,0 l/m 0,0 km/h (0 Bft) O 90 7,8 C 9,4 C 0,0 km/h (0 Bft)
06.06.2012 07:35 9,5 C 89 % 0,0 l/m 0,0 km/h (0 Bft) N 360 7,8 C 9,4 C 0,0 km/h (0 Bft)
06.06.2012 07:40 9,8 C 89 % 0,0 l/m 0,0 km/h (0 Bft) N 360 8,1 C 9,6 C 0,0 km/h (0 Bft)
06.06.2012 07:45 10,0 C 89 % 0,0 l/m 0,2 km/h (0 Bft) N 360 8,3 C 9,8 C 2,4 km/h (1 Bft)
06.06.2012 07:50 10,6 C 88 % 0,0 l/m 0,3 km/h (0 Bft) N-NW 337 8,7 C 10,3 C 2,3 km/h (1 Bft)
06.06.2012 07:55 11,5 C 88 % 0,0 l/m 0,5 km/h (0 Bft) O-SO 112 9,7 C 10,8 C 0,0 km/h (0 Bft)
06.06.2012 08:00 12,7 C 81 % 0,0 l/m 0,3 km/h (0 Bft) N-NW 337 9,8 C 12,4 C 3,7 km/h (1 Bft)
06.06.2012 08:05 12,6 C 82 % 0,0 l/m 1,1 km/h (1 Bft) SO 135 9,6 C 13,1 C 6,0 km/h (2 Bft)
06.06.2012 08:10 14,7 C 78 % 0,0 l/m 2,1 km/h (1 Bft) S-SO 157 12,0 C 13,9 C 4,5 km/h (1 Bft)
06.06.2012 08:15 14,6 C 76 % 0,0 l/m 2,6 km/h (1 Bft) S 180 10,7 C 15,0 C 2,9 km/h (1 Bft)
06.06.2012 08:20 13,3 C 78 % 0,0 l/m 1,8 km/h (1 Bft) W 270 9,5 C 14,5 C 0,0 km/h (0 Bft)
06.06.2012 08:25 13,1 C 78 % 0,0 l/m 0,6 km/h (0 Bft) O-SO 112 9,4 C 14,2 C 0,0 km/h (0 Bft)
06.06.2012 08:30 13,4 C 79 % 0,0 l/m 0,3 km/h (0 Bft) N 360 9,8 C 14,1 C 0,0 km/h (0 Bft)
06.06.2012 08:35 13,9 C 79 % 0,0 l/m 0,3 km/h (0 Bft) S 180 10,3 C 14,5 C 1,6 km/h (1 Bft)
06.06.2012 08:40 14,0 C 78 % 0,0 l/m 0,3 km/h (0 Bft) S 180 10,2 C 14,7 C 1,6 km/h (1 Bft)
06.06.2012 08:45 14,4 C 75 % 0,0 l/m 0,5 km/h (0 Bft) W-SW 247 10,2 C 14,8 C 0,0 km/h (0 Bft)
06.06.2012 08:50 15,5 C 71 % 0,0 l/m 0,3 km/h (0 Bft) W-SW 247 11,6 C 16,6 C 0,0 km/h (0 Bft)
06.06.2012 08:55 15,3 C 70 % 0,0 l/m 0,0 km/h (0 Bft) N 360 10,6 C 17,8 C 0,0 km/h (0 Bft)
06.06.2012 09:00 15,7 C 69 % 0,0 l/m 0,0 km/h (0 Bft) S-SO 157 10,2 C 18,4 C 0,0 km/h (0 Bft)
06.06.2012 09:05 15,7 C 70 % 0,0 l/m 0,2 km/h (0 Bft) S-SO 157 10,4 C 18,5 C 2,1 km/h (1 Bft)
06.06.2012 09:10 15,2 C 73 % 0,0 l/m 0,5 km/h (0 Bft) S 180 10,4 C 17,7 C 0,0 km/h (0 Bft)
06.06.2012 09:15 15,3 C 74 % 0,0 l/m 0,3 km/h (0 Bft) S-SO 157 10,7 C 17,2 C 0,0 km/h (0 Bft)
06.06.2012 09:20 15,9 C 71 % 0,0 l/m 0,0 km/h (0 Bft) N 360 10,9 C 17,4 C 0,0 km/h (0 Bft)
06.06.2012 09:25 16,0 C 70 % 0,0 l/m 0,0 km/h (0 Bft) O 90 11,4 C 17,6 C 0,0 km/h (0 Bft)
06.06.2012 09:30 17,1 C 67 % 0,0 l/m 0,2 km/h (0 Bft) S 180 12,5 C 19,8 C 1,9 km/h (1 Bft)
06.06.2012 09:35 17,6 C 63 % 0,0 l/m 0,8 km/h (0 Bft) SO 135 12,6 C 21,2 C 3,5 km/h (1 Bft)
06.06.2012 09:40 18,5 C 53 % 0,0 l/m 2,4 km/h (1 Bft) S 180 11,0 C 22,2 C 6,8 km/h (2 Bft)
06.06.2012 09:45 19,4 C 53 % 0,0 l/m 3,1 km/h (1 Bft) S 180 11,7 C 23,0 C 5,1 km/h (1 Bft)
06.06.2012 09:50 19,3 C 53 % 0,0 l/m 3,1 km/h (1 Bft) S 180 10,3 C 23,1 C 4,8 km/h (1 Bft)
06.06.2012 09:55 18,7 C 55 % 0,0 l/m 3,4 km/h (1 Bft) O 90 9,5 C 21,9 C 7,4 km/h (2 Bft)
06.06.2012 10:00 17,4 C 59 % 0,0 l/m 4,2 km/h (1 Bft) O-SO 112 9,3 C 20,0 C 8,7 km/h (2 Bft)
06.06.2012 10:05 17,1 C 62 % 0,0 l/m 4,3 km/h (1 Bft) SO 135 9,8 C 19,1 C 4,8 km/h (1 Bft)
06.06.2012 10:10 17,0 C 63 % 0,0 l/m 2,6 km/h (1 Bft) N-NO 22 9,9 C 18,4 C 0,0 km/h (0 Bft)
06.06.2012 10:15 17,1 C 61 % 0,0 l/m 2,6 km/h (1 Bft) N-NO 22 9,5 C 18,5 C 8,2 km/h (2 Bft)
06.06.2012 10:20 17,0 C 61 % 0,0 l/m 2,3 km/h (1 Bft) N 360 9,4 C 18,2 C 3,7 km/h (1 Bft)
06.06.2012 10:25 17,1 C 63 % 0,0 l/m 2,3 km/h (1 Bft) SO 135 10,0 C 18,2 C 0,0 km/h (0 Bft)
06.06.2012 10:30 17,1 C 64 % 0,0 l/m 1,1 km/h (1 Bft) S 180 10,2 C 18,4 C 2,7 km/h (1 Bft)
06.06.2012 10:35 16,8 C 64 % 0,0 l/m 0,8 km/h (0 Bft) SO 135 10,0 C 18,5 C 4,8 km/h (1 Bft)
06.06.2012 10:40 17,1 C 62 % 0,0 l/m 0,8 km/h (0 Bft) N-NO 22 9,8 C 19,0 C 0,0 km/h (0 Bft)
06.06.2012 10:45 17,4 C 62 % 0,0 l/m 1,4 km/h (1 Bft) O-SO 112 10,0 C 19,3 C 3,5 km/h (1 Bft)
06.06.2012 10:50 17,9 C 59 % 0,0 l/m 1,9 km/h (1 Bft) NO 45 9,8 C 19,4 C 0,0 km/h (0 Bft)
06.06.2012 10:55 17,9 C 61 % 0,0 l/m 2,1 km/h (1 Bft) O-SO 112 10,3 C 19,7 C 5,3 km/h (1 Bft)
06.06.2012 11:00 17,9 C 59 % 0,0 l/m 1,8 km/h (1 Bft) O-SO 112 9,8 C 19,6 C 2,9 km/h (1 Bft)
06.06.2012 11:05 18,2 C 59 % 0,0 l/m 2,1 km/h (1 Bft) W-SW 247 10,1 C 19,6 C 2,4 km/h (1 Bft)
06.06.2012 11:10 18,5 C 60 % 0,0 l/m 2,9 km/h (1 Bft) SO 135 10,6 C 19,8 C 4,8 km/h (1 Bft)
06.06.2012 11:15 18,7 C 56 % 0,0 l/m 3,9 km/h (1 Bft) S 180 9,7 C 19,8 C 8,5 km/h (2 Bft)
06.06.2012 11:20 19,4 C 52 % 0,0 l/m 5,6 km/h (1 Bft) S-SO 157 9,3 C 20,2 C 13,4 km/h (3 Bft)
06.06.2012 11:25 19,7 C 53 % 0,0 l/m 6,8 km/h (2 Bft) S-SO 157 9,8 C 20,2 C 11,6 km/h (2 Bft)
06.06.2012 11:30 19,7 C 50 % 0,0 l/m 8,2 km/h (2 Bft) SO 135 9,0 C 19,9 C 9,7 km/h (2 Bft)
06.06.2012 11:35 19,4 C 52 % 0,0 l/m 8,7 km/h (2 Bft) O-SO 112 9,3 C 19,8 C 9,3 km/h (2 Bft)
06.06.2012 11:40 19,2 C 53 % 0,0 l/m 7,6 km/h (2 Bft) SO 135 9,4 C 19,7 C 15,0 km/h (3 Bft)
06.06.2012 11:45 18,9 C 54 % 0,0 l/m 7,1 km/h (2 Bft) S-SO 157 9,4 C 19,6 C 8,2 km/h (2 Bft)
06.06.2012 11:50 18,8 C 56 % 0,0 l/m 6,3 km/h (2 Bft) SO 135 9,8 C 19,8 C 15,4 km/h (3 Bft)
06.06.2012 11:55 18,7 C 55 % 0,0 l/m 5,5 km/h (1 Bft) S-SW 202 9,5 C 19,6 C 9,3 km/h (2 Bft)
06.06.2012 12:00 18,4 C 54 % 0,0 l/m 7,6 km/h (2 Bft) O-SO 112 8,9 C 18,9 C 19,2 km/h (3 Bft)
06.06.2012 12:05 18,5 C 56 % 0,0 l/m 7,9 km/h (2 Bft) S 180 9,6 C 18,7 C 8,0 km/h (2 Bft)
06.06.2012 12:10 18,5 C 56 % 0,0 l/m 8,7 km/h (2 Bft) O 90 9,6 C 18,2 C 22,4 km/h (4 Bft)
06.06.2012 12:15 18,4 C 56 % 0,0 l/m 10,1 km/h (2 Bft) NO 45 9,5 C 17,7 C 9,8 km/h (2 Bft)
06.06.2012 12:20 18,5 C 56 % 0,0 l/m 9,5 km/h (2 Bft) S-SO 157 9,6 C 17,8 C 5,5 km/h (1 Bft)
06.06.2012 12:25 18,8 C 55 % 0,0 l/m 8,4 km/h (2 Bft) S-SW 202 9,6 C 18,6 C 12,2 km/h (2 Bft)
06.06.2012 12:30 18,7 C 56 % 0,0 l/m 7,7 km/h (2 Bft) O-SO 112 9,7 C 19,1 C 4,7 km/h (1 Bft)
06.06.2012 12:35 18,6 C 56 % 0,0 l/m 8,2 km/h (2 Bft) O-SO 112 9,6 C 18,7 C 14,3 km/h (3 Bft)
06.06.2012 12:40 18,8 C 55 % 0,0 l/m 7,9 km/h (2 Bft) SO 135 9,6 C 19,0 C 14,3 km/h (3 Bft)
06.06.2012 12:45 19,1 C 56 % 0,0 l/m 7,7 km/h (2 Bft) O 90 10,1 C 19,1 C 6,9 km/h (2 Bft)
06.06.2012 12:50 19,1 C 55 % 0,0 l/m 7,2 km/h (2 Bft) NO 45 9,8 C 19,5 C 10,6 km/h (2 Bft)
06.06.2012 12:55 19,1 C 56 % 0,0 l/m 7,2 km/h (2 Bft) NO 45 10,1 C 19,5 C 8,2 km/h (2 Bft)
06.06.2012 13:00 19,1 C 54 % 0,0 l/m 8,0 km/h (2 Bft) SO 135 9,6 C 19,1 C 8,9 km/h (2 Bft)
06.06.2012 13:05 19,2 C 57 % 0,0 l/m 7,1 km/h (2 Bft) SO 135 10,5 C 19,5 C 10,8 km/h (2 Bft)
06.06.2012 13:10 19,3 C 54 % 0,0 l/m 6,3 km/h (2 Bft) S-SO 157 9,8 C 20,0 C 9,5 km/h (2 Bft)
06.06.2012 13:15 19,6 C 55 % 0,0 l/m 6,4 km/h (2 Bft) SO 135 10,3 C 20,1 C 9,7 km/h (2 Bft)
06.06.2012 13:20 19,5 C 54 % 0,0 l/m 7,1 km/h (2 Bft) S-SW 202 9,9 C 19,9 C 12,1 km/h (2 Bft)
06.06.2012 13:25 19,0 C 53 % 0,0 l/m 7,9 km/h (2 Bft) SO 135 9,2 C 19,6 C 9,8 km/h (2 Bft)
06.06.2012 13:30 18,8 C 57 % 0,0 l/m 8,2 km/h (2 Bft) SO 135 10,1 C 19,0 C 10,1 km/h (2 Bft)
06.06.2012 13:35 18,5 C 56 % 0,0 l/m 7,6 km/h (2 Bft) S 180 9,6 C 19,0 C 9,3 km/h (2 Bft)
06.06.2012 13:40 18,4 C 58 % 0,0 l/m 6,4 km/h (2 Bft) S-SO 157 10,0 C 19,3 C 7,2 km/h (2 Bft)
06.06.2012 13:45 18,3 C 56 % 0,0 l/m 5,6 km/h (1 Bft) O-SO 112 9,4 C 19,2 C 8,9 km/h (2 Bft)
06.06.2012 13:50 18,5 C 58 % 0,0 l/m 5,5 km/h (1 Bft) O-SO 112 10,1 C 19,2 C 9,2 km/h (2 Bft)
06.06.2012 13:55 18,5 C 58 % 0,0 l/m 5,1 km/h (1 Bft) SO 135 10,1 C 19,2 C 7,9 km/h (2 Bft)
06.06.2012 14:00 18,2 C 59 % 0,0 l/m 4,5 km/h (1 Bft) O-SO 112 10,1 C 19,0 C 6,0 km/h (2 Bft)
06.06.2012 14:05 18,2 C 60 % 0,0 l/m 4,0 km/h (1 Bft) S-SO 157 10,3 C 19,0 C 3,5 km/h (1 Bft)
06.06.2012 14:10 18,2 C 60 % 0,0 l/m 2,6 km/h (1 Bft) O-SO 112 10,3 C 19,0 C 7,2 km/h (2 Bft)
06.06.2012 14:15 18,2 C 60 % 0,0 l/m 2,6 km/h (1 Bft) W-SW 247 10,3 C 19,0 C 3,7 km/h (1 Bft)
06.06.2012 14:20 18,2 C 61 % 0,0 l/m 4,0 km/h (1 Bft) O 90 10,6 C 19,0 C 6,0 km/h (2 Bft)
06.06.2012 14:25 17,9 C 62 % 0,0 l/m 3,2 km/h (1 Bft) O-SO 112 10,5 C 19,0 C 3,5 km/h (1 Bft)
06.06.2012 14:30 17,7 C 63 % 0,0 l/m 1,6 km/h (1 Bft) S 180 10,6 C 19,0 C 2,1 km/h (1 Bft)
06.06.2012 14:35 17,5 C 65 % 0,0 l/m 1,3 km/h (1 Bft) N-NO 22 10,8 C 19,0 C 1,6 km/h (1 Bft)
06.06.2012 14:40 17,6 C 63 % 0,0 l/m 1,4 km/h (1 Bft) O-SO 112 10,5 C 18,8 C 0,0 km/h (0 Bft)
06.06.2012 14:45 17,6 C 64 % 0,0 l/m 1,3 km/h (1 Bft) SO 135 10,7 C 18,7 C 2,4 km/h (1 Bft)
06.06.2012 14:50 17,5 C 64 % 0,0 l/m 1,8 km/h (1 Bft) SO 135 10,6 C 18,7 C 3,4 km/h (1 Bft)
06.06.2012 14:55 17,7 C 63 % 0,0 l/m 2,9 km/h (1 Bft) SO 135 10,6 C 18,6 C 6,4 km/h (2 Bft)
06.06.2012 15:00 17,9 C 62 % 0,0 l/m 4,0 km/h (1 Bft) O-SO 112 10,5 C 18,6 C 3,1 km/h (1 Bft)
06.06.2012 15:05 18,1 C 60 % 0,0 l/m 5,0 km/h (1 Bft) O-SO 112 10,2 C 18,7 C 8,5 km/h (2 Bft)
06.06.2012 15:10 17,9 C 59 % 0,0 l/m 6,8 km/h (2 Bft) SO 135 9,8 C 18,4 C 11,4 km/h (2 Bft)
06.06.2012 15:15 17,8 C 59 % 0,0 l/m 7,6 km/h (2 Bft) S-SO 157 9,7 C 17,8 C 5,3 km/h (1 Bft)
06.06.2012 15:20 18,0 C 61 % 0,0 l/m 5,6 km/h (1 Bft) SO 135 10,4 C 18,5 C 5,3 km/h (1 Bft)
06.06.2012 15:25 18,1 C 59 % 0,0 l/m 4,5 km/h (1 Bft) N-NW 337 10,0 C 18,7 C 6,6 km/h (2 Bft)
06.06.2012 15:30 17,5 C 59 % 0,0 l/m 4,8 km/h (1 Bft) SO 135 9,4 C 18,4 C 3,1 km/h (1 Bft)
06.06.2012 15:35 17,0 C 59 % 0,0 l/m 5,3 km/h (1 Bft) SO 135 8,9 C 18,0 C 6,0 km/h (2 Bft)
06.06.2012 15:40 16,9 C 60 % 0,0 l/m 4,7 km/h (1 Bft) NO 45 9,1 C 17,5 C 2,7 km/h (1 Bft)
06.06.2012 15:45 17,3 C 60 % 0,0 l/m 4,3 km/h (1 Bft) O-SO 112 9,5 C 17,6 C 6,4 km/h (2 Bft)
06.06.2012 15:50 17,3 C 61 % 0,0 l/m 3,4 km/h (1 Bft) SO 135 9,7 C 17,7 C 3,9 km/h (1 Bft)
06.06.2012 15:55 17,2 C 60 % 0,0 l/m 4,0 km/h (1 Bft) S 180 9,4 C 17,7 C 5,8 km/h (2 Bft)
06.06.2012 16:00 16,9 C 60 % 0,0 l/m 4,8 km/h (1 Bft) S-SO 157 9,1 C 17,6 C 8,0 km/h (2 Bft)
06.06.2012 16:05 16,6 C 59 % 0,0 l/m 5,5 km/h (1 Bft) S-SO 157 8,6 C 17,4 C 5,1 km/h (1 Bft)
06.06.2012 16:10 16,5 C 60 % 0,0 l/m 5,6 km/h (1 Bft) O-SO 112 8,7 C 17,0 C 7,7 km/h (2 Bft)
06.06.2012 16:15 16,5 C 60 % 0,0 l/m 5,6 km/h (1 Bft) S-SO 157 8,7 C 16,9 C 5,6 km/h (1 Bft)
06.06.2012 16:20 15,8 C 64 % 0,0 l/m 7,4 km/h (2 Bft) SO 135 9,0 C 15,6 C 6,8 km/h (2 Bft)
06.06.2012 16:25 15,6 C 66 % 0,0 l/m 6,8 km/h (2 Bft) SO 135 9,3 C 15,4 C 3,4 km/h (1 Bft)
06.06.2012 16:30 15,8 C 66 % 0,0 l/m 6,0 km/h (2 Bft) S-SO 157 9,5 C 15,5 C 6,9 km/h (2 Bft)
06.06.2012 16:35 15,9 C 67 % 0,0 l/m 6,1 km/h (2 Bft) SO 135 9,8 C 15,7 C 3,5 km/h (1 Bft)
06.06.2012 16:40 15,9 C 67 % 0,0 l/m 4,2 km/h (1 Bft) SW 225 9,8 C 15,8 C 5,5 km/h (1 Bft)
06.06.2012 16:45 15,6 C 67 % 0,0 l/m 4,5 km/h (1 Bft) O-SO 112 9,5 C 15,6 C 3,5 km/h (1 Bft)
06.06.2012 16:50 15,2 C 69 % 0,0 l/m 4,2 km/h (1 Bft) O-SO 112 9,6 C 15,2 C 2,9 km/h (1 Bft)
06.06.2012 16:55 14,8 C 71 % 0,0 l/m 3,1 km/h (1 Bft) S 180 9,6 C 14,8 C 1,8 km/h (1 Bft)
06.06.2012 17:00 14,7 C 74 % 0,0 l/m 3,2 km/h (1 Bft) SO 135 10,1 C 14,1 C 2,9 km/h (1 Bft)
06.06.2012 17:05 14,7 C 74 % 0,0 l/m 3,9 km/h (1 Bft) SO 135 10,1 C 14,1 C 5,8 km/h (2 Bft)
06.06.2012 17:10 14,6 C 73 % 0,0 l/m 5,6 km/h (1 Bft) S-SO 157 9,8 C 14,1 C 9,7 km/h (2 Bft)
06.06.2012 17:15 14,6 C 73 % 0,0 l/m 7,2 km/h (2 Bft) SO 135 9,8 C 13,4 C 8,0 km/h (2 Bft)
06.06.2012 17:20 14,4 C 74 % 0,0 l/m 7,4 km/h (2 Bft) SO 135 9,8 C 13,3 C 11,7 km/h (2 Bft)
06.06.2012 17:25 14,3 C 74 % 0,0 l/m 6,6 km/h (2 Bft) SO 135 9,7 C 13,7 C 2,1 km/h (1 Bft)
06.06.2012 17:30 14,2 C 75 % 0,0 l/m 5,3 km/h (1 Bft) SO 135 9,8 C 13,7 C 4,7 km/h (1 Bft)
06.06.2012 17:35 14,0 C 76 % 0,0 l/m 5,0 km/h (1 Bft) S 180 9,8 C 13,6 C 5,1 km/h (1 Bft)
06.06.2012 17:40 13,8 C 77 % 0,0 l/m 4,2 km/h (1 Bft) S 180 9,8 C 13,5 C 2,4 km/h (1 Bft)
06.06.2012 17:45 13,6 C 78 % 0,0 l/m 3,2 km/h (1 Bft) O 90 9,8 C 13,3 C 2,7 km/h (1 Bft)
06.06.2012 17:50 13,4 C 79 % 0,0 l/m 2,3 km/h (1 Bft) SO 135 9,8 C 13,0 C 7,1 km/h (2 Bft)
06.06.2012 17:55 13,2 C 80 % 0,0 l/m 1,6 km/h (1 Bft) O 90 9,8 C 12,8 C 2,9 km/h (1 Bft)
06.06.2012 18:00 13,0 C 81 % 0,0 l/m 1,8 km/h (1 Bft) O-SO 112 9,8 C 12,6 C 2,4 km/h (1 Bft)
06.06.2012 18:05 13,1 C 82 % 0,0 l/m 2,3 km/h (1 Bft) SO 135 10,1 C 12,6 C 3,7 km/h (1 Bft)
06.06.2012 18:10 13,2 C 82 % 0,0 l/m 3,1 km/h (1 Bft) SO 135 10,2 C 12,6 C 4,2 km/h (1 Bft)
06.06.2012 18:15 13,2 C 82 % 0,0 l/m 2,6 km/h (1 Bft) O 90 10,2 C 12,6 C 1,9 km/h (1 Bft)
06.06.2012 18:20 13,0 C 83 % 0,0 l/m 1,3 km/h (1 Bft) N-NW 337 10,2 C 12,7 C 0,0 km/h (0 Bft)
06.06.2012 18:25 13,1 C 83 % 0,0 l/m 0,8 km/h (0 Bft) O-SO 112 10,3 C 12,7 C 3,4 km/h (1 Bft)
06.06.2012 18:30 13,2 C 83 % 0,0 l/m 0,8 km/h (0 Bft) N 360 10,4 C 12,8 C 0,0 km/h (0 Bft)
06.06.2012 18:35 13,1 C 83 % 0,0 l/m 0,6 km/h (0 Bft) N-NO 22 10,3 C 12,9 C 0,0 km/h (0 Bft)
06.06.2012 18:40 13,1 C 85 % 0,0 l/m 0,3 km/h (0 Bft) N 360 10,6 C 12,9 C 3,2 km/h (1 Bft)
06.06.2012 18:45 13,1 C 85 % 0,0 l/m 0,5 km/h (0 Bft) W-NW 292 10,6 C 13,0 C 0,0 km/h (0 Bft)
06.06.2012 18:50 13,5 C 84 % 0,0 l/m 0,3 km/h (0 Bft) NO 45 10,8 C 13,3 C 0,0 km/h (0 Bft)
06.06.2012 18:55 13,6 C 84 % 0,0 l/m 0,0 km/h (0 Bft) N-NO 22 10,9 C 13,5 C 0,0 km/h (0 Bft)
06.06.2012 19:00 13,9 C 84 % 0,0 l/m 0,5 km/h (0 Bft) SO 135 11,2 C 13,7 C 0,0 km/h (0 Bft)
06.06.2012 19:05 14,0 C 83 % 0,0 l/m 0,8 km/h (0 Bft) N-NO 22 11,2 C 13,9 C 0,0 km/h (0 Bft)
06.06.2012 19:10 13,8 C 83 % 0,0 l/m 0,5 km/h (0 Bft) SO 135 11,0 C 13,9 C 0,0 km/h (0 Bft)
06.06.2012 19:15 13,7 C 83 % 0,0 l/m 0,2 km/h (0 Bft) O-SO 112 10,9 C 13,8 C 0,0 km/h (0 Bft)
06.06.2012 19:20 13,5 C 83 % 0,0 l/m 0,0 km/h (0 Bft) N-NO 22 10,7 C 13,6 C 0,0 km/h (0 Bft)
06.06.2012 19:25 13,4 C 84 % 0,0 l/m 0,2 km/h (0 Bft) N 360 10,8 C 13,6 C 0,0 km/h (0 Bft)
06.06.2012 19:30 13,5 C 84 % 0,0 l/m 0,2 km/h (0 Bft) N-NO 22 10,8 C 13,5 C 0,0 km/h (0 Bft)
06.06.2012 19:35 13,5 C 84 % 0,0 l/m 0,5 km/h (0 Bft) O-NO 67 10,8 C 13,5 C 4,0 km/h (1 Bft)
06.06.2012 19:40 13,5 C 84 % 0,0 l/m 0,5 km/h (0 Bft) O-SO 112 10,8 C 13,6 C 0,0 km/h (0 Bft)
06.06.2012 19:45 13,4 C 84 % 0,0 l/m 0,5 km/h (0 Bft) SO 135 10,8 C 13,5 C 0,0 km/h (0 Bft)
06.06.2012 19:50 13,5 C 84 % 0,0 l/m 0,2 km/h (0 Bft) O-SO 112 10,8 C 13,6 C 0,0 km/h (0 Bft)
06.06.2012 19:55 13,6 C 84 % 0,0 l/m 0,2 km/h (0 Bft) O-SO 112 10,9 C 13,7 C 0,0 km/h (0 Bft)
06.06.2012 20:00 13,6 C 84 % 0,0 l/m 0,5 km/h (0 Bft) SO 135 10,9 C 13,9 C 0,0 km/h (0 Bft)
06.06.2012 20:05 13,6 C 84 % 0,0 l/m 0,6 km/h (0 Bft) S-SO 157 10,9 C 13,9 C 0,0 km/h (0 Bft)
06.06.2012 20:10 13,5 C 84 % 0,0 l/m 0,0 km/h (0 Bft) NO 45 10,8 C 13,9 C 0,0 km/h (0 Bft)
06.06.2012 20:15 13,4 C 84 % 0,0 l/m 0,0 km/h (0 Bft) N-NW 337 10,8 C 13,9 C 0,0 km/h (0 Bft)
06.06.2012 20:20 13,4 C 84 % 0,0 l/m 0,0 km/h (0 Bft) N-NW 337 10,8 C 13,7 C 0,0 km/h (0 Bft)
06.06.2012 20:25 13,4 C 84 % 0,0 l/m 0,2 km/h (0 Bft) S 180 10,8 C 13,6 C 1,8 km/h (1 Bft)
06.06.2012 20:30 13,4 C 83 % 0,0 l/m 0,6 km/h (0 Bft) SO 135 10,6 C 13,6 C 3,2 km/h (1 Bft)
06.06.2012 20:35 13,3 C 83 % 0,0 l/m 1,3 km/h (1 Bft) NO 45 10,5 C 13,7 C 3,1 km/h (1 Bft)
06.06.2012 20:40 13,5 C 83 % 0,0 l/m 2,3 km/h (1 Bft) SO 135 10,7 C 13,8 C 1,9 km/h (1 Bft)
06.06.2012 20:45 13,4 C 82 % 0,0 l/m 1,9 km/h (1 Bft) O 90 10,4 C 13,8 C 0,0 km/h (0 Bft)
06.06.2012 20:50 13,2 C 82 % 0,0 l/m 1,3 km/h (1 Bft) NO 45 10,2 C 13,6 C 5,3 km/h (1 Bft)
06.06.2012 20:55 13,1 C 81 % 0,0 l/m 1,1 km/h (1 Bft) S-SW 202 9,9 C 13,6 C 1,9 km/h (1 Bft)
06.06.2012 21:00 13,0 C 81 % 0,0 l/m 0,8 km/h (0 Bft) O-SO 112 9,8 C 13,4 C 0,0 km/h (0 Bft)
06.06.2012 21:05 13,2 C 81 % 0,0 l/m 0,6 km/h (0 Bft) O-SO 112 10,0 C 13,4 C 0,0 km/h (0 Bft)
06.06.2012 21:10 13,1 C 81 % 0,0 l/m 0,6 km/h (0 Bft) SO 135 9,9 C 13,4 C 0,0 km/h (0 Bft)
06.06.2012 21:15 12,9 C 82 % 0,0 l/m 0,3 km/h (0 Bft) N-NO 22 9,9 C 13,4 C 0,0 km/h (0 Bft)
06.06.2012 21:20 13,1 C 81 % 0,0 l/m 0,2 km/h (0 Bft) NO 45 9,9 C 13,3 C 0,0 km/h (0 Bft)
06.06.2012 21:25 13,1 C 81 % 0,0 l/m 0,2 km/h (0 Bft) NO 45 9,9 C 13,2 C 0,0 km/h (0 Bft)
06.06.2012 21:30 13,2 C 81 % 0,0 l/m 0,3 km/h (0 Bft) NO 45 10,0 C 13,1 C 0,0 km/h (0 Bft)
06.06.2012 21:35 13,3 C 81 % 0,0 l/m 0,6 km/h (0 Bft) N-NO 22 10,1 C 13,2 C 2,6 km/h (1 Bft)
06.06.2012 21:40 13,3 C 80 % 0,0 l/m 0,6 km/h (0 Bft) N 360 9,9 C 13,2 C 2,1 km/h (1 Bft)
06.06.2012 21:45 13,3 C 80 % 0,0 l/m 0,8 km/h (0 Bft) N-NW 337 9,9 C 13,2 C 2,3 km/h (1 Bft)
06.06.2012 21:50 13,2 C 80 % 0,0 l/m 0,8 km/h (0 Bft) SO 135 9,8 C 13,1 C 3,4 km/h (1 Bft)
06.06.2012 21:55 13,2 C 80 % 0,0 l/m 1,0 km/h (0 Bft) SO 135 9,8 C 13,3 C 2,4 km/h (1 Bft)
06.06.2012 22:00 13,2 C 80 % 0,0 l/m 1,0 km/h (0 Bft) N 360 9,8 C 13,3 C 0,0 km/h (0 Bft)
06.06.2012 22:05 13,1 C 80 % 0,0 l/m 1,0 km/h (0 Bft) N 360 9,7 C 13,3 C 0,0 km/h (0 Bft)
06.06.2012 22:10 13,1 C 80 % 0,0 l/m 0,3 km/h (0 Bft) N-NO 22 9,7 C 13,4 C 0,0 km/h (0 Bft)
06.06.2012 22:15 13,2 C 80 % 0,0 l/m 0,0 km/h (0 Bft) N 360 9,8 C 13,4 C 1,8 km/h (1 Bft)
06.06.2012 22:20 13,3 C 80 % 0,0 l/m 0,2 km/h (0 Bft) N-NW 337 9,9 C 13,4 C 0,0 km/h (0 Bft)
06.06.2012 22:25 13,4 C 80 % 0,0 l/m 0,6 km/h (0 Bft) NO 45 10,0 C 13,3 C 0,0 km/h (0 Bft)
06.06.2012 22:30 13,4 C 80 % 0,0 l/m 1,1 km/h (1 Bft) N-NW 337 10,0 C 13,4 C 2,6 km/h (1 Bft)
06.06.2012 22:35 13,3 C 79 % 0,0 l/m 1,0 km/h (0 Bft) S 180 9,7 C 13,5 C 0,0 km/h (0 Bft)
06.06.2012 22:40 13,4 C 79 % 0,0 l/m 0,3 km/h (0 Bft) N 360 9,8 C 13,6 C 0,0 km/h (0 Bft)
06.06.2012 22:45 13,4 C 79 % 0,0 l/m 0,0 km/h (0 Bft) NO 45 9,8 C 13,6 C 0,0 km/h (0 Bft)
06.06.2012 22:50 13,4 C 79 % 0,0 l/m 0,2 km/h (0 Bft) N 360 9,8 C 13,6 C 2,1 km/h (1 Bft)
06.06.2012 22:55 13,4 C 79 % 0,0 l/m 0,3 km/h (0 Bft) N 360 9,8 C 13,6 C 2,1 km/h (1 Bft)
06.06.2012 23:00 13,5 C 79 % 0,0 l/m 0,5 km/h (0 Bft) O-SO 112 9,9 C 13,5 C 0,0 km/h (0 Bft)
06.06.2012 23:05 13,2 C 80 % 0,0 l/m 0,3 km/h (0 Bft) NW 315 9,8 C 13,4 C 0,0 km/h (0 Bft)
06.06.2012 23:10 13,0 C 80 % 0,0 l/m 0,0 km/h (0 Bft) N 360 9,6 C 13,2 C 0,0 km/h (0 Bft)
06.06.2012 23:15 12,9 C 82 % 0,0 l/m 0,0 km/h (0 Bft) N 360 9,9 C 13,1 C 0,0 km/h (0 Bft)
06.06.2012 23:20 12,7 C 82 % 0,0 l/m 0,0 km/h (0 Bft) N 360 9,7 C 12,9 C 0,0 km/h (0 Bft)
06.06.2012 23:25 12,7 C 83 % 0,0 l/m 0,0 km/h (0 Bft) N-NW 337 9,9 C 12,9 C 0,0 km/h (0 Bft)
06.06.2012 23:30 12,9 C 83 % 0,0 l/m 0,0 km/h (0 Bft) N-NW 337 10,1 C 12,9 C 2,1 km/h (1 Bft)
06.06.2012 23:35 13,3 C 81 % 0,0 l/m 0,2 km/h (0 Bft) O-SO 112 10,1 C 13,1 C 1,9 km/h (1 Bft)
06.06.2012 23:40 13,5 C 80 % 0,0 l/m 0,3 km/h (0 Bft) O-SO 112 10,1 C 13,3 C 0,0 km/h (0 Bft)
06.06.2012 23:45 13,5 C 79 % 0,0 l/m 0,6 km/h (0 Bft) S-SO 157 9,9 C 13,4 C 1,8 km/h (1 Bft)
06.06.2012 23:50 13,3 C 79 % 0,0 l/m 0,5 km/h (0 Bft) N 360 9,7 C 13,4 C 0,0 km/h (0 Bft)
06.06.2012 23:55 13,4 C 79 % 0,0 l/m 0,3 km/h (0 Bft) N-NO 22 9,8 C 13,4 C 0,0 km/h (0 Bft)
_ Min-Zeit 01:59 11:30 - 23:30 - - 00:59 01:59 23:55
Minimum _ 4,9 C 50 % - 0,0 km/h (0 Bft) - - 3,7 C 4,6 C 0,0 km/h (0 Bft)
_ Max-Zeit 11:30 04:00 23:55 12:15 - - 09:35 09:50 12:10
Maximum _ 19,7 C 93 % 0,0 l/m 10,1 km/h
NO (2 Bft)
- - 12,6 C 23,1 C 22,4 km/h
O (4 Bft)
Durchschnitt _ 12,8 C 77 % #0,0 l/m 2,0 km/h (1 Bft) SO - 8,6 C 13,1 C 2,8 km/h (1 Bft)